• In Russia
  • List of Countries
  • For 7 days
  • Water Temperature
  • Satellite Maps
  • Weather Map
  • Weather Widgets
  • user-avatar
    Login

    Hourly Weather Koma

    Today, 18 January, Friday

    Time Temperature Precipitation Wind Pressure Humidity
    00:00 -15°C° 0 mm 2 mps 725 mmHg 95%
    01:00 -15°C° 0 mm 2 mps 725 mmHg 96%
    02:00 -15°C° 0 mm 2 mps 725 mmHg 96%
    03:00 -16°C° 0 mm 2 mps 725 mmHg 96%
    04:00 -16°C° 0 mm 2 mps 725 mmHg 96%
    05:00 -15°C° 0.1 mm 2 mps 725 mmHg 96%
    06:00 -15°C° 0.1 mm 2 mps 725 mmHg 95%
    07:00 -13°C° 0 mm 1 mps 725 mmHg 95%
    08:00 -14°C° 0.1 mm 2 mps 726 mmHg 93%
    09:00 -13°C° 0.1 mm 2 mps 726 mmHg 91%
    10:00 -13°C° 0.1 mm 3 mps 726 mmHg 88%
    11:00 -13°C° 0.1 mm 3 mps 726 mmHg 87%
    12:00 -12°C° 0.1 mm 3 mps 726 mmHg 85%
    13:00 -11°C° 0.1 mm 4 mps 726 mmHg 84%
    14:00 -12°C° 0.1 mm 3 mps 726 mmHg 86%
    15:00 -12°C° 0.1 mm 3 mps 726 mmHg 88%
    16:00 -10°C° 0.1 mm 2 mps 726 mmHg 90%
    17:00 -12°C° 0.1 mm 2 mps 726 mmHg 91%
    18:00 -12°C° 0.1 mm 2 mps 726 mmHg 92%
    19:00 -12°C° 0.1 mm 2 mps 727 mmHg 93%
    20:00 -13°C° 0.1 mm 2 mps 727 mmHg 93%
    21:00 -13°C° 0.1 mm 2 mps 727 mmHg 94%
    22:00 -13°C° 0.1 mm 2 mps 727 mmHg 94%
    23:00 -14°C° 0 mm 2 mps 727 mmHg 94%

    Tomorrow, 19 January, Saturday

    Time Temperature Precipitation Wind Pressure Humidity
    00:00 -15°C° 0 mm 2 mps 728 mmHg 95%
    01:00 -13°C° 0 mm 1 mps 728 mmHg 95%
    02:00 -14°C° 0 mm 1 mps 728 mmHg 96%
    03:00 -15°C° 0 mm 1 mps 728 mmHg 96%
    04:00 -15°C° 0 mm 1 mps 728 mmHg 96%
    05:00 -15°C° 0 mm 1 mps 728 mmHg 96%
    06:00 -16°C° 0 mm 1 mps 729 mmHg 96%
    07:00 -16°C° 0 mm 1 mps 729 mmHg 96%
    08:00 -15°C° 0 mm 1 mps 729 mmHg 94%
    09:00 -13°C° 0 mm 1 mps 729 mmHg 92%
    10:00 -12°C° 0 mm 1 mps 730 mmHg 90%
    11:00 -11°C° 0 mm 1 mps 729 mmHg 87%
    12:00 -9°C° 0 mm 1 mps 729 mmHg 84%
    13:00 -8°C° 0 mm 1 mps 729 mmHg 81%
    14:00 -9°C° 0 mm 1 mps 728 mmHg 84%
    15:00 -10°C° 0 mm 1 mps 728 mmHg 88%
    16:00 -11°C° 0 mm 1 mps 727 mmHg 92%
    17:00 -12°C° 0 mm 1 mps 727 mmHg 92%
    18:00 -15°C° 0 mm 2 mps 727 mmHg 93%
    19:00 -17°C° 0 mm 2 mps 726 mmHg 94%
    20:00 -17°C° 0 mm 2 mps 726 mmHg 93%
    21:00 -17°C° 0 mm 2 mps 725 mmHg 93%
    22:00 -18°C° 0 mm 2 mps 725 mmHg 92%
    23:00 -18°C° 0 mm 2 mps 724 mmHg 92%

    Day after tomorrow, 20 January, Sunday

    Time Temperature Precipitation Wind Pressure Humidity
    00:00 -18°C° 0 mm 2 mps 724 mmHg 92%
    01:00 -16°C° 0 mm 1 mps 723 mmHg 92%
    02:00 -17°C° 0 mm 1 mps 723 mmHg 92%
    03:00 -17°C° 0 mm 1 mps 722 mmHg 91%
    04:00 -18°C° 0 mm 1 mps 722 mmHg 91%
    05:00 -18°C° 0 mm 1 mps 722 mmHg 90%
    06:00 -18°C° 0 mm 1 mps 722 mmHg 88%
    07:00 -18°C° 0 mm 1 mps 722 mmHg 87%
    08:00 -16°C° 0 mm 1 mps 722 mmHg 84%
    09:00 -14°C° 0 mm 1 mps 723 mmHg 81%
    10:00 -13°C° 0 mm 1 mps 723 mmHg 78%
    11:00 -11°C° 0 mm 1 mps 722 mmHg 77%
    12:00 -9°C° 0 mm 1 mps 722 mmHg 76%
    13:00 -7°C° 0 mm 1 mps 722 mmHg 75%
    14:00 -8°C° 0 mm 1 mps 722 mmHg 79%
    15:00 -8°C° 0 mm 1 mps 722 mmHg 83%
    16:00 -9°C° 0 mm 1 mps 721 mmHg 86%
    17:00 -10°C° 0 mm 1 mps 722 mmHg 85%
    18:00 -11°C° 0 mm 1 mps 722 mmHg 85%
    19:00 -11°C° 0 mm 1 mps 722 mmHg 84%
    20:00 -12°C° 0 mm 1 mps 722 mmHg 83%
    21:00 -12°C° 0 mm 1 mps 722 mmHg 82%
    22:00 -12°C° 0 mm 1 mps 722 mmHg 81%
    23:00 -13°C° 0 mm 1 mps 721 mmHg 80%

    21 January, Monday

    Time Temperature Precipitation Wind Pressure Humidity
    00:00 -13°C° 0 mm 1 mps 721 mmHg 80%
    01:00 -13°C° 0 mm 1 mps 721 mmHg 79%
    02:00 -14°C° 0 mm 1 mps 721 mmHg 79%
    03:00 -14°C° 0 mm 1 mps 720 mmHg 78%
    04:00 -15°C° 0 mm 1 mps 720 mmHg 78%
    05:00 -15°C° 0 mm 1 mps 720 mmHg 78%
    06:00 -15°C° 0 mm 1 mps 720 mmHg 79%
    07:00 -16°C° 0 mm 1 mps 720 mmHg 79%
    08:00 -14°C° 0 mm 1 mps 720 mmHg 78%
    09:00 -13°C° 0 mm 1 mps 720 mmHg 76%
    10:00 -11°C° 0 mm 1 mps 720 mmHg 75%
    11:00 -10°C° 0 mm 1 mps 720 mmHg 74%
    12:00 -8°C° 0 mm 1 mps 719 mmHg 74%
    13:00 -6°C° 0 mm 1 mps 719 mmHg 73%
    14:00 -7°C° 0 mm 1 mps 719 mmHg 77%
    15:00 -7°C° 0 mm 1 mps 719 mmHg 81%
    16:00 -8°C° 0 mm 1 mps 719 mmHg 85%
    17:00 -9°C° 0 mm 1 mps 719 mmHg 85%
    18:00 -10°C° 0 mm 1 mps 719 mmHg 85%
    19:00 -11°C° 0 mm 1 mps 719 mmHg 84%
    20:00 -11°C° 0 mm 1 mps 719 mmHg 84%
    21:00 -11°C° 0 mm 1 mps 719 mmHg 84%
    22:00 -12°C° 0 mm 1 mps 719 mmHg 84%
    23:00 -12°C° 0 mm 1 mps 719 mmHg 84%

    22 January, Tuesday

    Time Temperature Precipitation Wind Pressure Humidity
    00:00 -12°C° 0 mm 1 mps 718 mmHg 84%
    01:00 -12°C° 0 mm 1 mps 718 mmHg 84%
    02:00 -12°C° 0 mm 1 mps 718 mmHg 84%
    03:00 -12°C° 0 mm 1 mps 718 mmHg 84%
    04:00 -13°C° 0 mm 1 mps 718 mmHg 84%
    05:00 -13°C° 0 mm 1 mps 718 mmHg 83%
    06:00 -13°C° 0 mm 1 mps 718 mmHg 83%
    07:00 -13°C° 0 mm 1 mps 718 mmHg 82%
    08:00 -12°C° 0 mm 1 mps 719 mmHg 80%
    09:00 -11°C° 0 mm 1 mps 719 mmHg 79%
    10:00 -10°C° 0 mm 1 mps 719 mmHg 77%
    11:00 -8°C° 0 mm 1 mps 719 mmHg 74%
    12:00 -6°C° 0 mm 1 mps 719 mmHg 72%
    13:00 -4°C° 0 mm 1 mps 719 mmHg 70%
    14:00 -6°C° 0 mm 1 mps 720 mmHg 74%
    15:00 -7°C° 0 mm 1 mps 720 mmHg 78%
    16:00 -8°C° 0 mm 1 mps 720 mmHg 83%
    17:00 -8°C° 0 mm 1 mps 721 mmHg 83%
    18:00 -8°C° 0 mm 1 mps 721 mmHg 84%
    19:00 -9°C° 0 mm 1 mps 722 mmHg 84%
    20:00 -9°C° 0 mm 1 mps 722 mmHg 86%
    21:00 -9°C° 0 mm 1 mps 723 mmHg 88%
    22:00 -9°C° 0 mm 1 mps 723 mmHg 91%
    23:00 -9°C° 0 mm 1 mps 724 mmHg 91%

    23 January, Wednesday

    Time Temperature Precipitation Wind Pressure Humidity
    00:00 -10°C° 0 mm 1 mps 724 mmHg 92%
    01:00 -10°C° 0 mm 1 mps 724 mmHg 93%
    02:00 -10°C° 0.1 mm 1 mps 725 mmHg 94%
    03:00 -9°C° 0.1 mm 1 mps 725 mmHg 94%
    04:00 -10°C° 0.1 mm 2 mps 726 mmHg 95%
    05:00 -10°C° 0 mm 2 mps 726 mmHg 94%
    06:00 -10°C° 0 mm 2 mps 727 mmHg 94%
    07:00 -10°C° 0 mm 2 mps 728 mmHg 93%
    08:00 -10°C° 0 mm 2 mps 728 mmHg 91%
    09:00 -12°C° 0 mm 3 mps 728 mmHg 88%
    10:00 -12°C° 0 mm 3 mps 729 mmHg 86%
    11:00 -10°C° 0 mm 3 mps 729 mmHg 84%
    12:00 -10°C° 0 mm 3 mps 728 mmHg 82%
    13:00 -10°C° 0 mm 3 mps 728 mmHg 80%
    14:00 -10°C° 0 mm 2 mps 728 mmHg 83%
    15:00 -12°C° 0 mm 2 mps 728 mmHg 86%
    16:00 -11°C° 0 mm 1 mps 729 mmHg 89%
    17:00 -12°C° 0 mm 1 mps 729 mmHg 90%
    18:00 -13°C° 0 mm 1 mps 729 mmHg 91%
    19:00 -14°C° 0 mm 1 mps 729 mmHg 92%
    20:00 -14°C° 0 mm 1 mps 729 mmHg 92%
    21:00 -15°C° 0 mm 1 mps 729 mmHg 92%
    22:00 -15°C° 0 mm 1 mps 729 mmHg 92%
    23:00 -15°C° 0 mm 1 mps 729 mmHg 92%
    Show more